Regional Weather Roundup
Issued by NWS Raleigh/Durham, NC

Home | Current Version | Previous Version | Text Only | Print | Product List | Glossary On
Versions: 1 2 3 4 5 6 7 8 9 10 11 12 13 14 15 16 17 18 19 20 21 22 23 24 25 26 27 28
000
ASUS42 KRAH 250010
RWRRAH
NORTH CAROLINA WEATHER ROUNDUP
NATIONAL WEATHER SERVICE RALEIGH NC
700 PM EST FRI FEB 24 2017

NOTE: "FAIR" INDICATES FEW OR NO CLOUDS BELOW 12,000 FEET WITH NO
SIGNIFICANT WEATHER AND/OR OBSTRUCTIONS TO VISIBILITY.

NCZ001-053-055-056-065-067-250100-
WESTERN NORTH CAROLINA

CITY           SKY/WX    TMP DP  RH WIND       PRES   REMARKS
ASHEVILLE      CLEAR     64  48  56 S9        29.83F
JEFFERSON      CLOUDY    58  49  72 CALM      29.86S
MORGANTON      CLEAR     66  52  59 S3        29.86S
HICKORY        CLEAR     65  52  62 CALM      29.81S
RUTHERFORDTON  CLEAR     67  51  57 S6        29.82F
MOUNT AIRY     CLEAR     68  54  59 CALM      29.83F
BOONE          PTCLDY    58  47  68 SE3       29.87S
$$

NCZ021-022-025-041-071-084-088-250100-
CENTRAL NORTH CAROLINA

CITY           SKY/WX    TMP DP  RH WIND       PRES   REMARKS
CHARLOTTE      PTCLDY    68  50  52 S5        29.82S
GREENSBORO     MOCLDY    67  52  58 S7        29.82R
WINSTON-SALEM  CLEAR     69  48  47 S6        29.83R
RALEIGH-DURHAM PTCLDY    70  53  54 S3        29.83S
FORT BRAGG     CLEAR     68  58  72 CALM      29.82R
FAYETTEVILLE   MOCLDY    71  57  61 SE5       29.82S
BURLINGTON     CLEAR     70  53  54 SE3       29.82R
LAURINBURG     CLEAR     65  55  70 CALM      29.83R
$$

NCZ011-015-027-028-043-044-047-080-103-250100-
NORTHEASTERN NORTH CAROLINA

CITY           SKY/WX    TMP DP  RH WIND       PRES   REMARKS
ROCKY MT-WILSO CLEAR     70  59  68 CALM      29.84R
GREENVILLE     CLEAR     70  59  68 S8        29.88R
WASHINGTON     CLEAR     66  59  77 SE8       29.86S
ELIZABETH CITY CLEAR     64  58  80 SE8       29.88S
MANTEO         PTCLDY    63  58  86 E6        29.90S
CAPE HATTERAS  CLEAR     66  59  78 E7        29.87S
$$

NCZ078-087-090-091-093-098-101-250100-
SOUTHEASTERN NORTH CAROLINA

CITY           SKY/WX    TMP DP  RH WIND       PRES   REMARKS
LUMBERTON      CLEAR     68  58  70 CALM      29.82R
GOLDSBORO      MOCLDY    72  61  70 E12       29.82R
KINSTON        CLEAR     70  59  68 SE6       29.86R
KENANSVILLE    CLOUDY    70  59  68 SE7       29.85R
NEW BERN       CLEAR     66  60  81 SE6       29.87S
CHERRY POINT     N/A     64  60  87 NE3       29.88R
BEAUFORT       CLEAR     65  59  81 NE3       29.86R
JACKSONVILLE   CLEAR     66  61  84 SE6       29.85S
WILMINGTON     CLEAR     67  61  81 E6        29.85S
$$





USA.gov is the U.S. government's official web portal to all federal, state and local government web resources and services.